KE8URB Weather Reports


Display with metric or nautical units.
time (UTC)temp
F
wind
direction
speed
MPH
gust
MPH
rain 1hr
in
rain 24hr
in
rain mn
in
humidity
%
barometer
mb
20260505102108 62 202 10.0 11.0 0.00 0.00 0.00 75 1007.4
20260505101607 61 171 5.0 6.0 0.00 0.00 0.00 75 1007.2
20260505101102 62 196 5.0 7.0 0.00 0.00 0.00 75 1006.9
20260505100559 62 185 7.0 9.0 0.00 0.00 0.00 74 1007.2
20260505100056 62 167 8.0 10.0 0.00 0.00 0.00 75 1007.2
20260505095552 62 166 7.0 9.0 0.00 0.00 0.00 74 1006.9
20260505095049 62 182 10.0 11.0 0.00 0.00 0.00 74 1007.0
20260505094545 62 180 5.0 6.0 0.00 0.00 0.00 73 1006.9
20260505094041 62 187 7.0 8.0 0.00 0.00 0.00 73 1006.9
20260505093538 62 179 5.0 6.0 0.00 0.00 0.00 73 1006.7
20260505093036 62 217 7.0 8.0 0.00 0.00 0.00 73 1006.6
20260505092533 63 202 6.0 9.0 0.00 0.00 0.00 73 1006.7
20260505092031 63 211 4.0 6.0 0.00 0.00 0.00 72 1006.6
20260505091527 63 191 6.0 9.0 0.00 0.00 0.00 71 1006.6
20260505091027 62 187 6.0 14.0 0.00 0.00 0.00 73 1006.5
20260505090524 63 199 4.0 5.0 0.00 0.00 0.00 72 1006.6
20260505090021 63 187 2.0 2.0 0.00 0.00 0.00 72 1006.3
20260505085519 63 195 3.0 5.0 0.00 0.00 0.00 72 1006.5
20260505085017 62 269 5.0 7.0 0.00 0.00 0.00 73 1006.4
20260505084515 63 280 3.0 6.0 0.00 0.00 0.00 72 1006.4
20260505084013 63 205 3.0 3.0 0.00 0.00 0.00 73 1006.5
20260505083510 63 216 4.0 5.0 0.00 0.00 0.00 71 1006.4
20260505083006 63 179 2.0 5.0 0.00 0.00 0.00 71 1006.4
20260505082502 63 200 7.0 8.0 0.00 0.00 0.00 71 1006.4
20260505081959 63 232 6.0 8.0 0.00 0.00 0.00 71 1006.2
20260505081456 63 176 7.0 10.0 0.00 0.00 0.00 72 1006.3
20260505080952 63 192 6.0 9.0 0.00 0.00 0.00 72 1006.1
20260505080448 63 192 5.0 6.0 0.00 0.00 0.00 72 1006.1
20260505075944 63 218 3.0 6.0 0.00 0.00 0.00 72 1006.2
20260505075441 63 179 7.0 10.0 0.00 0.00 0.00 72 1005.9
20260505074938 63 197 7.0 10.0 0.00 0.00 0.00 72 1006.0
20260505074436 63 198 5.0 6.0 0.00 0.00 0.00 72 1005.8
20260505073932 63 188 4.0 5.0 0.00 0.00 0.00 72 1006.0
20260505073430 64 174 5.0 6.0 0.00 0.00 0.00 71 1005.9
20260505072927 63 166 5.0 6.0 0.00 0.00 0.00 70 1005.7
20260505072423 64 191 7.0 9.0 0.00 0.00 0.00 70 1005.8
20260505071919 63 203 8.0 9.0 0.00 0.00 0.00 70 1005.5
20260505071416 64 173 7.0 8.0 0.00 0.00 0.00 70 1005.6
20260505070914 64 196 8.0 9.0 0.00 0.00 0.00 70 1005.7
20260505070410 64 158 7.0 8.0 0.00 0.00 0.00 69 1005.9
20260505065906 64 180 5.0 6.0 0.00 0.00 0.00 69 1005.6
20260505065402 64 181 8.0 9.0 0.00 0.00 0.00 69 1005.7
20260505064859 64 213 6.0 7.0 0.00 0.00 0.00 68 1005.8
20260505064356 64 201 10.0 15.0 0.00 0.00 0.00 69 1005.6
20260505063855 64 176 8.0 9.0 0.00 0.00 0.00 69 1005.8
20260505063355 65 176 6.0 8.0 0.00 0.00 0.00 68 1005.6
20260505062852 64 175 9.0 13.0 0.00 0.00 0.00 69 1005.7
20260505062350 64 205 10.0 13.0 0.00 0.00 0.00 69 1005.9
20260505061846 65 198 10.0 13.0 0.00 0.00 0.00 69 1005.8
20260505061344 65 182 7.0 8.0 0.00 0.00 0.00 69 1005.7
20260505060842 64 178 9.0 13.0 0.00 0.00 0.00 70 1006.2
20260505060338 64 191 7.0 9.0 0.00 0.00 0.00 72 1006.1
20260505055834 64 195 10.0 11.0 0.00 0.00 0.00 72 1006.2
20260505055330 64 207 5.0 7.0 0.00 0.00 0.00 72 1006.0
20260505054828 64 189 5.0 7.0 0.00 0.00 0.00 71 1006.4
20260505054325 64 179 9.0 10.0 0.00 0.00 0.00 71 1006.3
20260505053823 64 203 6.0 8.0 0.00 0.00 0.00 71 1006.5
20260505053320 65 187 9.0 10.0 0.00 0.00 0.00 70 1006.4
20260505052817 65 207 9.0 13.0 0.00 0.00 0.00 70 1006.5
20260505052314 65 196 6.0 7.0 0.00 0.00 0.00 69 1006.6
20260505051811 65 189 9.0 13.0 0.00 0.00 0.00 69 1006.6
20260505051308 66 220 6.0 7.0 0.00 0.00 0.00 69 1006.7
20260505050806 65 178 8.0 9.0 0.00 0.00 0.00 69 1006.7
20260505050305 65 180 8.0 11.0 0.00 0.00 0.00 68 1006.6
20260505041734 65 173 11.0 14.0 0.00 0.00 0.00 68 1006.7
20260505041231 65 196 8.0 11.0 0.00 0.00 0.00 69 1006.6
20260505040729 65 229 9.0 10.0 0.00 0.00 0.00 69 1006.4
20260505040226 65 211 6.0 8.0 0.00 0.00 0.00 69 1006.8
20260505035723 65 191 6.0 8.0 0.00 0.00 0.00 69 1006.8
20260505035219 65 191 7.0 9.0 0.00 0.00 0.00 69 1006.9
20260505034716 65 210 12.0 15.0 0.00 0.00 0.00 69 1006.8
20260505034213 65 206 9.0 11.0 0.00 0.00 0.00 69 1006.8
20260505033709 65 175 7.0 8.0 0.00 0.00 0.00 69 1006.7
20260505033207 65 187 7.0 8.0 0.00 0.00 0.00 69 1006.8
20260505032705 65 204 11.0 11.0 0.00 0.00 0.00 69 1006.9
20260505032200 65 198 11.0 13.0 0.00 0.00 0.00 69 1006.9
20260505031658 65 199 9.0 11.0 0.00 0.00 0.00 69 1006.8
20260505031154 64 181 9.0 10.0 0.00 0.00 0.00 69 1006.9
20260505030651 64 155 3.0 6.0 0.00 0.00 0.00 70 1007.0
20260505030147 64 181 6.0 8.0 0.00 0.00 0.00 70 1006.7
20260505025643 64 175 2.0 3.0 0.00 0.00 0.00 70 1007.0
20260505025142 64 186 6.0 9.0 0.00 0.00 0.00 69 1006.7
20260505024639 64 202 7.0 8.0 0.00 0.00 0.00 69 1006.9
20260505024136 65 182 7.0 9.0 0.00 0.00 0.00 68 1006.8
20260505023634 64 168 4.0 5.0 0.00 0.00 0.00 69 1006.7
20260505023131 64 177 6.0 7.0 0.00 0.00 0.00 68 1006.9
20260505022628 64 201 5.0 7.0 0.00 0.00 0.00 69 1006.9
20260505022125 64 196 7.0 10.0 0.00 0.00 0.00 69 1007.0
20260505021621 64 196 8.0 10.0 0.00 0.00 0.00 68 1007.2
20260505021118 64 172 5.0 6.0 0.00 0.00 0.00 68 1007.0
20260505020614 64 175 4.0 5.0 0.00 0.00 0.00 68 1007.2
20260505020110 64 205 7.0 10.0 0.00 0.00 0.00 68 1007.0
20260505015608 64 204 3.0 5.0 0.00 0.00 0.00 67 1006.9
20260505015104 64 180 5.0 7.0 0.00 0.00 0.00 67 1006.9
20260505014601 65 191 4.0 5.0 0.00 0.00 0.00 67 1006.9
20260505014058 64 204 7.0 10.0 0.00 0.00 0.00 67 1006.8
20260505013555 65 167 5.0 7.0 0.00 0.00 0.00 67 1006.9
20260505013052 65 195 5.0 6.0 0.00 0.00 0.00 67 1006.7
20260505012550 65 172 5.0 7.0 0.00 0.00 0.00 67 1006.9
20260505012047 65 177 5.0 8.0 0.00 0.00 0.00 66 1006.8
20260505011543 65 191 5.0 6.0 0.00 0.00 0.00 66 1006.9
20260505011040 65 196 5.0 6.0 0.00 0.00 0.00 66 1006.7
20260505010535 65 172 6.0 8.0 0.00 0.00 0.00 66 1006.7
20260505010032 65 191 6.0 8.0 0.00 0.00 0.00 66 1006.7
20260505005529 65 200 8.0 10.0 0.00 0.00 0.00 66 1006.7
20260505005026 65 167 5.0 8.0 0.00 0.00 0.00 65 1006.7
20260505004523 66 196 7.0 8.0 0.00 0.00 0.00 65 1006.5
20260505004020 65 193 6.0 7.0 0.00 0.00 0.00 66 1006.4
20260505003517 65 192 7.0 8.0 0.00 0.00 0.00 65 1006.6
20260505003014 65 188 6.0 8.0 0.00 0.00 0.00 66 1006.7
20260505002509 65 175 5.0 6.0 0.00 0.00 0.00 66 1006.6
20260505002008 66 206 5.0 6.0 0.00 0.00 0.00 65 1006.4
20260505001505 66 200 6.0 8.0 0.00 0.00 0.00 64 1006.4
20260505001002 66 190 7.0 7.0 0.00 0.00 0.00 64 1006.3
20260505000500 66 197 10.0 14.0 0.00 0.00 0.00 64 1006.3
20260504235957 66 199 4.0 7.0 0.00 0.00 0.00 64 1006.3
20260504235454 67 200 5.0 8.0 0.00 0.00 0.00 63 1006.2
20260504234950 67 218 7.0 10.0 0.00 0.00 0.00 63 1006.5
20260504234448 68 196 3.0 5.0 0.00 0.00 0.00 63 1006.4
20260504233944 68 185 8.0 10.0 0.00 0.00 0.00 61 1006.3
20260504233440 68 202 11.0 14.0 0.00 0.00 0.00 61 1006.3
20260504232937 68 191 4.0 5.0 0.00 0.00 0.00 61 1006.1
20260504232434 69 186 9.0 14.0 0.00 0.00 0.00 60 1006.2
20260504231931 69 180 13.0 15.0 0.00 0.00 0.00 59 1006.3
20260504231427 69 190 9.0 11.0 0.00 0.00 0.00 60 1006.2
20260504230924 69 200 12.0 15.0 0.00 0.00 0.00 59 1006.4
20260504230421 69 195 6.0 7.0 0.00 0.00 0.00 61 1006.5
20260504225920 69 186 5.0 6.0 0.00 0.00 0.00 62 1006.6
20260504225416 69 259 5.0 10.0 0.00 0.00 0.00 61 1006.6
20260504224914 69 190 6.0 7.0 0.00 0.00 0.00 61 1006.5
20260504224410 69 191 5.0 5.0 0.00 0.00 0.00 60 1006.4
20260504223907 69 260 7.0 9.0 0.00 0.00 0.00 61 1006.6
20260504223402 69 190 5.0 7.0 0.00 0.00 0.00 61 1006.3
20260504222859 71 191 4.0 7.0 0.00 0.00 0.00 59 1006.4
20260504222356 71 228 9.0 10.0 0.00 0.00 0.00 59 1006.5
20260504221854 70 171 7.0 9.0 0.00 0.00 0.00 60 1006.6
20260504221350 71 187 7.0 10.0 0.00 0.00 0.00 59 1006.3
20260504220848 71 210 11.0 14.0 0.00 0.00 0.00 57 1006.4
20260504220344 71 199 13.0 17.0 0.00 0.00 0.00 58 1006.6
20260504215842 71 210 7.0 11.0 0.00 0.00 0.00 59 1006.6
20260504215338 71 159 10.0 11.0 0.00 0.00 0.00 58 1006.7
20260504214834 71 221 6.0 8.0 0.00 0.00 0.00 58 1006.7
20260504214331 71 201 16.0 21.0 0.00 0.00 0.00 58 1006.7
20260504213828 71 212 14.0 17.0 0.00 0.00 0.00 57 1006.6
20260504213323 71 202 7.0 8.0 0.00 0.00 0.00 60 1006.6
20260504212821 70 193 6.0 8.0 0.00 0.00 0.00 59 1006.7
20260504212317 70 177 14.0 16.0 0.00 0.00 0.00 58 1006.5
20260504211815 70 232 6.0 7.0 0.00 0.00 0.00 58 1006.7
20260504211311 72 223 5.0 6.0 0.00 0.00 0.00 60 1006.6
20260504210809 73 203 9.0 11.0 0.00 0.00 0.00 58 1006.9
20260504210306 72 202 15.0 22.0 0.00 0.00 0.00 57 1006.6
20260504205803 71 228 8.0 9.0 0.00 0.00 0.00 58 1006.8
20260504205300 71 271 8.0 11.0 0.00 0.00 0.00 58 1006.7
20260504204758 69 184 7.0 8.0 0.00 0.00 0.00 61 1006.8
20260504204256 71 202 14.0 17.0 0.00 0.00 0.00 58 1006.9
20260504203755 71 184 10.0 11.0 0.00 0.00 0.00 58 1006.7
20260504203253 72 171 6.0 8.0 0.00 0.00 0.00 57 1006.6
20260504202753 73 263 11.0 16.0 0.00 0.00 0.00 59 1006.7
20260504202250 72 267 11.0 15.0 0.00 0.00 0.00 58 1006.6
20260504201747 72 258 14.0 15.0 0.00 0.00 0.00 58 1006.7
20260504201244 72 202 4.0 6.0 0.00 0.00 0.00 58 1006.7
20260504200742 73 271 8.0 10.0 0.00 0.00 0.00 57 1006.6
20260504200237 72 214 5.0 7.0 0.00 0.00 0.00 59 1006.7
20260504195734 69 198 3.0 6.0 0.00 0.00 0.00 62 1006.8
20260504195230 69 200 7.0 11.0 0.00 0.00 0.00 61 1007.0
20260504194728 70 176 8.0 9.0 0.00 0.00 0.00 59 1007.1
20260504194223 70 198 7.0 10.0 0.00 0.00 0.00 58 1007.2
20260504193720 71 176 7.0 8.0 0.00 0.00 0.00 60 1007.0
20260504193218 71 196 10.0 15.0 0.00 0.00 0.00 60 1007.3
20260504192716 71 204 8.0 11.0 0.00 0.00 0.00 57 1007.6
20260504192214 70 182 6.0 8.0 0.00 0.00 0.00 59 1007.1
20260504191712 70 176 6.0 9.0 0.00 0.00 0.00 59 1007.4
20260504191209 71 240 3.0 5.0 0.00 0.00 0.00 60 1007.3
20260504190704 70 184 6.0 7.0 0.00 0.00 0.00 58 1007.5
20260504190200 71 189 11.0 15.0 0.00 0.00 0.00 59 1007.6
20260504185657 70 180 4.0 5.0 0.00 0.00 0.00 61 1007.4
20260504185153 70 190 12.0 14.0 0.00 0.00 0.00 60 1007.9
20260504184650 70 188 4.0 6.0 0.00 0.00 0.00 65 1007.9
20260504184145 69 219 5.0 9.0 0.00 0.00 0.00 61 1007.6
20260504183642 69 208 11.0 14.0 0.00 0.00 0.00 59 1007.9
20260504183139 69 201 5.0 6.0 0.00 0.00 0.00 62 1008.0
20260504182637 69 194 12.0 15.0 0.00 0.00 0.00 61 1007.7
20260504182134 68 191 6.0 8.0 0.00 0.00 0.00 63 1007.9
20260504181632 68 166 4.0 6.0 0.00 0.00 0.00 63 1008.1
20260504181129 69 189 14.0 17.0 0.00 0.00 0.00 61 1007.9
20260504180628 67 204 7.0 10.0 0.00 0.00 0.00 61 1008.1
20260504180126 68 179 10.0 13.0 0.00 0.00 0.00 62 1008.2
20260504175623 68 195 5.0 8.0 0.00 0.00 0.00 63 1008.2
20260504175120 68 184 5.0 7.0 0.00 0.00 0.00 63 1008.1
20260504174618 68 185 7.0 9.0 0.00 0.00 0.00 62 1008.1
20260504174114 67 173 7.0 8.0 0.00 0.00 0.00 63 1008.1
20260504173611 67 187 9.0 11.0 0.00 0.00 0.00 63 1008.4
20260504173109 66 200 7.0 8.0 0.00 0.00 0.00 64 1008.5
20260504172605 67 188 9.0 11.0 0.00 0.00 0.00 63 1008.5
20260504172102 66 189 5.0 7.0 0.00 0.00 0.00 62 1008.6
20260504171558 66 186 6.0 7.0 0.00 0.00 0.00 60 1008.6
20260504171055 66 179 7.0 9.0 0.00 0.00 0.00 62 1008.7
20260504170551 66 167 7.0 10.0 0.00 0.00 0.00 62 1008.7
20260504150935 61 185 4.0 5.0 0.00 0.00 0.00 65 1009.7
20260504150432 61 211 9.0 11.0 0.00 0.00 0.00 64 1009.8
20260504140858 59 185 7.0 8.0 0.00 0.00 0.00 65 1010.3
20260504140354 58 197 6.0 8.0 0.00 0.00 0.00 67 1010.3
20260504130319 55 208 7.0 9.0 0.00 0.00 0.00 66 1010.5
20260504120243 51 201 7.0 8.0 0.00 0.00 0.00 70 1010.2
20260504110710 50 190 7.0 8.0 0.00 0.00 0.00 70 1010.0
20260504110207 50 203 6.0 7.0 0.00 0.00 0.00 69 1010.1